Location: São Paulo
(23.5507°S, 46.6334°W)
Time: 19:28:40
(UTC-03:00)

Vanguard 2 Rocket - Pass Details

Date: 23 February 2026
Orbit: 553 x 3286 km, 32.9° (Epoch: 11 March)

Event Time Altitude Azimuth Distance (km) Brightness Sun altitude
Exits shadow 02:31:23 36° 135° (SE) 1,803 8.6 -43.7°
Drops below altitude 10° 02:38:24 10° 98° (E) 3,937 10.6 -42.5°
Sets 02:42:56 0° 92° (E) 5,419 11.4 -41.7°
